sat.trackr.live / text

‹ back to catalog

STARLINK-2717

NORAD 48659 · 2021-044X

PAYLOAD ACTIVE UNKNOWN

§ Identity

Operator
Country
US
Launch date
2021-05-26
Launch site
AFETR
Launch vehicle
Mass (kg)
RCS (m²)

Purposes: comms

External: N2YO · Heavens-Above · Gunter

§ Orbital elements

Epoch: 2026-05-25T02:33:03.233088Z

Period
94.01 min
Inclination
53.1597°
Eccentricity
0.0001379
Mean motion
15.31694370 rev/d
Perigee alt
469.8 km
Apogee alt
471.7 km
Semi-major
6,848.9 km
B*
4.5140e-5
RAAN
118.4392°
Arg perigee
81.7950°
Mean anomaly
278.3208°
Rev number
27,553

§ Raw data

STARLINK-27171 48659U 21044X   26145.10628742  .00001036  00000+0  45140-4 0  99982 48659  53.1597 118.4392 0001379  81.7950 278.3208 15.31694370275533

JSON: /api/v1/satellites/48659 · /tle

For live sub-satellite position, see the globe view (requires WebGL).

§ Visibility from observer

Set your observer location to see the next 7 days of passes ≥ 10°. The values pass through the URL so the page stays shareable.

No JS? Fill the form by hand. The geolocation button needs JavaScript.